Location: Albany
(35.0000°S, 118.0000°E)
Time: 20:05:39
(UTC-04:00)

JAS-1B - Visible Passes

Search period start: 28 May 2016 00:00
Search period end: 07 June 2016 00:00
Orbit: 911 x 1744 km, 99.0° (Epoch: 28 May)

Date Brightness Start Highest point End Pass type
(mag) Time Alt. Az. Time Alt. Az. Time Alt. Az.
28 May 7.0 06:09:10 10° NNE 06:14:50 62° ESE 06:21:13 10° S visible
28 May 9.7 08:03:17 10° WNW 08:06:16 14° W 08:09:23 10° WSW visible
28 May 10.1 17:55:23 10° SE 18:03:04 30° E 18:11:13 10° NNE visible
29 May 7.0 06:27:59 10° NNE 06:33:46 90° ESE 06:40:21 10° SSW visible
29 May 9.7 18:13:51 10° SSE 18:22:15 40° E 18:31:16 10° NNE visible
30 May 7.5 06:47:04 10° N 06:52:47 63° W 06:59:18 10° SSW visible
30 May 9.2 18:32:32 10° SSE 18:41:25 53° E 18:50:59 10° N visible
31 May 8.2 07:06:25 10° NNW 07:11:54 42° W 07:18:07 10° SSW visible
31 May 10.9 17:05:50 10° ESE 17:09:06 12° E 17:12:26 10° ENE visible
01 Jun 7.7 05:35:05 10° NE 05:40:23 35° ESE 05:46:23 10° S visible
01 Jun 8.9 07:26:05 10° NNW 07:31:06 29° W 07:36:42 10° SW visible
01 Jun 10.6 17:22:32 10° SE 17:28:29 18° E 17:34:37 10° NE visible
02 Jun 7.3 05:53:30 10° NE 05:59:11 50° ESE 06:05:45 10° S visible
02 Jun 9.5 07:46:11 10° NW 07:50:22 20° W 07:54:57 10° SW visible
02 Jun 10.3 17:40:23 10° SE 17:47:49 25° E 17:55:29 10° NE visible
03 Jun 7.0 06:12:11 10° NNE 06:18:04 73° ESE 06:24:58 10° S visible
03 Jun 9.9 08:07:10 10° WNW 08:09:43 13° W 08:12:25 10° WSW visible
03 Jun 9.9 17:58:43 10° SSE 18:07:05 34° E 18:15:45 10° NNE visible
04 Jun 7.2 06:31:06 10° N 06:37:03 80° WNW 06:44:02 10° SSW visible
04 Jun 9.4 18:17:17 10° SSE 18:26:17 46° E 18:35:37 10° NNE visible
05 Jun 7.8 06:50:16 10° N 06:56:07 55° W 07:02:57 10° SSW visible
05 Jun 9.0 18:36:04 10° SSE 18:45:26 60° E 18:55:11 10° N visible
06 Jun 8.5 07:09:42 10° NNW 07:15:16 38° W 07:21:43 10° SSW visible
06 Jun 10.7 17:08:11 10° ESE 17:13:08 15° E 17:18:08 10° ENE visible
